Location: ??????
(41.3794°N, 22.5014°E)
Time: 08:19:47
(UTC+00:00)

Meteor 1-11 Rocket - Pass Details

Date: 30 November 2020
Orbit: 832 x 915 km, 81.2° (Epoch: 17 January)

Event Time Altitude Azimuth Distance (km) Brightness Sun altitude
Rises 17:40:09 0° 348° (NNW) 3,476 7.0 -29.2°
Reaches altitude 10° 17:42:35 10° 346° (NNW) 2,546 6.3 -29.6°
Maximum altitude 17:48:22 73° 263° (W) 936 3.9 -30.7°
Enters shadow 17:48:46 70° 231° (SW) 951 3.9 -30.8°
Exits shadow 17:54:11 10° 180° (S) 2,559 6.2 -31.8°
Drops below altitude 10° 17:54:13 10° 180° (S) 2,578 6.2 -31.8°
Sets 17:56:42 0° 178° (S) 3,522 6.9 -32.3°
